Powrót do katalogu

RADARSAT 2

AktywnyNaukaSSO
NORAD 32382·PAYLOAD·🇨🇦 Canada

Wystrzelony Dec 14, 2007 z Baikonur Cosmodrome

Loading…

Następne Przeloty (najbliższe 24 godziny)

TLE

ŚwieżeSource: Space-Track

Epoka: Sep 14, 2026, 14:24 UTC

1 32382U 07061A   26257.60055191 -.00000087  00000-0 -16861-4 0  9994
2 32382  98.5814 263.2701 0001230  81.8494 278.2828 14.29982098978739

Śledź RADARSAT 2 w czasie rzeczywistym z AllMySat

Download on the App Store